Preview of NWS' New Version of Forecast
This preview is not operational and should not be used for support decisions.

Regional Weather Roundup (RWR)

Issued by Philadelphia/Mt Holly (PHI)

                            
000
ASUS41 KPHI 181412
RWRPHI

REGIONAL WEATHER ROUNDUP
NATIONAL WEATHER SERVICE MOUNT HOLLY NJ
1000 AM EDT WED SEP 18 2019

NOTE:  "FAIR" INDICATES FEW OR NO CLOUDS BELOW 12,000 FEET WITH NO
SIGNIFICANT WEATHER AND/OR OBSTRUCTIONS TO VISIBILITY.

 * = STATION DOES NOT REPORT PRECIPITATION (E.G. RAIN, SNOW, ETC.) 
        OR FOG.

NJZ015>026-181500-
SOUTHERN NEW JERSEY
  
CITY           SKY/WX    TMP DP  RH WIND       PRES   REMARKS
POMONA         PTSUNNY   68  56  65 NE10G17   30.21R                  
WILDWOOD*      FAIR      70  57  63 NE13      30.20R                  
MILLVILLE      PTSUNNY   67  55  65 NE8       30.21R                  
WRIGHTSTOWN    FAIR      69  53  55 NE13      30.22S                  
MOUNT HOLLY    FAIR      66  54  65 NE8       30.22S                  
TRENTON        FAIR      65  54  67 NE9       30.23S                  

$$
NJZ001>014-181500-
NORTHERN NEW JERSEY
  
CITY           SKY/WX    TMP DP  RH WIND       PRES   REMARKS
SUSSEX         FAIR      59  48  67 NE15      30.27S                  
ANDOVER*         N/A     60  50  69 VRB6      30.27S                  
MORRISTOWN     MOSUNNY   63  54  72 E6        30.26S                  
NEWARK         FAIR      64  52  64 NE13      30.25R                  
TETERBORO      FAIR      65  50  58 NE9       30.25R                  
CALDWELL       FAIR      63  49  60 NE6       30.27R                  
SOMERVILLE     FAIR      65  51  60 VRB7      30.23S                  
ALLAIRE*       CLOUDY    65  54  67 NE12      30.25R                  
TOMS RIVER*    FAIR      65  61  87 NE15      30.23R                  

$$
PAZ043-044-047-054-055-060>062-066>071-181500-
EASTERN PENNSYLVANIA
  
CITY           SKY/WX    TMP DP  RH WIND       PRES   REMARKS
PHILADELPHIA   FAIR      68  52  56 E9        30.23R                  
NORTH PHILA    FAIR      68  53  58 NE12      30.24S                  
BLUE BELL*     FAIR      65  55  69 E9        30.24S                  
DOYLESTOWN     FAIR      65  52  62 NE7       30.24R                  
QUAKERTOWN*    MOSUNNY   61  54  77 VRB6      30.26                   
PERKASIE*      PTSUNNY   61  55  82 NE7       30.26S                  
POTTSTOWN      FAIR      60  52  74 E5        30.26R                  
LANCASTER      FAIR      66  49  54 NE7       30.24S                  
COATESVILLE    FAIR      63  52  67 NE5       30.25S                  
WEST CHESTER   FAIR      63  50  63 CALM      30.24S                  
READING        FAIR      63  52  67 N8        30.24R                  
ALLENTOWN      FAIR      63  48  58 E13       30.26R                  
QN CITY/ALNTWN PTSUNNY   59  50  72 N7        30.27S                  
MOUNT POCONO   FAIR      56  46  69 NE9       30.27S                  
HAZLETON       FAIR      59  45  58 NE5       30.29S                  
LEHIGHTON      FAIR      61  48  63 E7        30.27F                  
WILKES BARRE   FAIR      60  48  64 NW3       30.28S                  

$$
DEZALL-MDZ008-012-015-019-020-181500-
DELAWARE AND EASTERN MARYLAND
  
CITY           SKY/WX    TMP DP  RH WIND       PRES   REMARKS
WILMINGTON     FAIR      69  55  60 NE9       30.23R                  
DOVER          FAIR      69  56  63 NE12      30.21R                  
CHESWOLD       SUNNY     68  57  68 E10       30.21S                  
GEORGETOWN     PTSUNNY   70  57  63 NE15      30.20R                  
EASTON         MOSUNNY   72  57  60 NE10      30.24R                  
STEVENSVILLE   FAIR      70  55  60 E8        30.22R                  
ABERDEEN       SUNNY     68  55  64 E8        30.22                   
PATUXENT       FAIR      72  53  51 NE12      30.20                   
OCEAN CITY     CLOUDY    69  55  60 NE14G22   30.17R                  
WALLOPS ISLAND PTSUNNY   66  56  70 N8        30.18R                  
CAMBRIDGE      SUNNY     70  57  64 NE12      30.20R                  
SALISBURY      FAIR      70  57  63 N8        30.18R                  

$$
PAZ001-021-NYZ056-072-MDZ011-DCZ001-181500-
OTHER NEARBY LOCATIONS
  
CITY           SKY/WX    TMP DP  RH WIND       PRES   REMARKS
HARRISBURG     FAIR      66  47  50 N3        30.24S                  
STATE COLLEGE  SUNNY     57  50  77 NE7       30.28R                  
WILLIAMSPORT   FAIR      60  49  66 CALM      30.27S                  
BINGHAMTON     FAIR      55  45  68 E7        30.30R                  
NEW YORK CITY  FAIR      64  49  57 NE8       30.28R                  
BALTIMORE      FAIR      71  56  58 E9        30.21R                  
WASHINGTON DC  FAIR      72  58  61 NE6       30.22R                  

$$